Time,TemperatureF,DewpointF,PressureIn,WindDirection,WindDirectionDegrees,WindSpeedMPH,WindSpeedGustMPH,Humidity,HourlyPrecipIn,Conditions,Clouds,dailyrainin,SoftwareType,DateUTC
2013-03-29 00:02:00,34.0,34.0,-100.00,SE,135,2.0,3.0,97,0.00,,,-99.99,,2013-03-29 05:02:00,
2013-03-29 00:12:00,34.0,34.0,-100.00,NNW,340,1.0,2.0,98,0.00,,,-99.99,,2013-03-29 05:12:00,
2013-03-29 00:23:00,33.0,33.0,-100.00,NNE,30,1.0,1.0,98,0.00,,,-99.99,,2013-03-29 05:23:00,
2013-03-29 00:32:00,33.0,33.0,-100.00,SE,145,0.0,2.0,99,0.00,,,-99.99,,2013-03-29 05:32:00,
2013-03-29 00:43:00,34.0,34.0,-100.00,North,-999,-999.0,-999.0,100,0.00,,,-99.99,,2013-03-29 05:43:00,
2013-03-29 00:52:00,34.0,34.0,-100.00,NNE,20,1.0,1.0,99,0.00,,,-99.99,,2013-03-29 05:52:00,
2013-03-29 01:02:00,34.0,34.0,-100.00,NNE,20,1.0,1.0,99,0.00,,,-99.99,,2013-03-29 06:02:00,
2013-03-29 01:12:00,33.0,33.0,-100.00,WSW,245,0.0,6.0,99,0.00,,,-99.99,,2013-03-29 06:12:00,
2013-03-29 01:23:00,33.0,33.0,-100.00,NW,325,1.0,2.0,99,0.00,,,-99.99,,2013-03-29 06:23:00,
2013-03-29 01:32:00,33.0,33.0,-100.00,North,0,0.0,1.0,99,0.00,,,-99.99,,2013-03-29 06:32:00,
2013-03-29 01:42:00,33.0,33.0,-100.00,NE,40,0.0,2.0,99,0.00,,,-99.99,,2013-03-29 06:42:00,
2013-03-29 01:52:00,33.0,33.0,-100.00,ENE,65,1.0,2.0,99,0.00,,,-99.99,,2013-03-29 06:52:00,
2013-03-29 02:03:00,33.0,33.0,-100.00,NE,55,1.0,2.0,99,0.00,,,-99.99,,2013-03-29 07:03:00,
2013-03-29 02:12:00,33.0,33.0,-100.00,NE,35,1.0,1.0,99,0.00,,,-99.99,,2013-03-29 07:12:00,
2013-03-29 02:22:00,33.0,33.0,-100.00,NNE,25,1.0,2.0,99,0.00,,,-99.99,,2013-03-29 07:22:00,
2013-03-29 02:32:00,32.0,32.0,-100.00,NE,45,2.0,2.0,99,0.00,,,-99.99,,2013-03-29 07:32:00,
2013-03-29 02:42:00,32.0,32.0,-100.00,ENE,65,1.0,2.0,99,0.00,,,-99.99,,2013-03-29 07:42:00,
2013-03-29 02:52:00,31.0,31.0,-100.00,NE,45,0.0,1.0,99,0.00,,,-99.99,,2013-03-29 07:52:00,
2013-03-29 03:02:00,31.0,31.0,-100.00,NE,45,0.0,1.0,99,0.00,,,-99.99,,2013-03-29 08:02:00,
2013-03-29 03:12:00,32.0,32.0,-100.00,NNW,340,0.0,2.0,99,0.00,,,-99.99,,2013-03-29 08:12:00,
2013-03-29 03:22:00,31.0,31.0,-100.00,NE,55,1.0,1.0,99,0.00,,,-99.99,,2013-03-29 08:22:00,
2013-03-29 03:32:00,31.0,31.0,-100.00,NE,45,1.0,2.0,99,0.00,,,-99.99,,2013-03-29 08:32:00,
2013-03-29 03:42:00,31.0,31.0,-100.00,NE,45,1.0,2.0,99,0.00,,,-99.99,,2013-03-29 08:42:00,
2013-03-29 03:52:00,31.0,31.0,-100.00,NE,45,1.0,2.0,99,0.00,,,-99.99,,2013-03-29 08:52:00,
2013-03-29 04:02:00,31.0,31.0,-100.00,NE,45,1.0,2.0,99,0.00,,,-99.99,,2013-03-29 09:02:00,
2013-03-29 04:12:00,30.0,30.0,-100.00,NE,35,2.0,3.0,99,0.00,,,-99.99,,2013-03-29 09:12:00,
2013-03-29 04:22:00,29.0,29.0,-100.00,NNE,30,2.0,3.0,99,0.00,,,-99.99,,2013-03-29 09:22:00,
2013-03-29 04:32:00,29.0,29.0,-100.00,NE,40,1.0,2.0,99,0.00,,,-99.99,,2013-03-29 09:32:00,
2013-03-29 04:52:00,30.0,30.0,-100.00,NNE,30,0.0,1.0,99,0.00,,,-99.99,,2013-03-29 09:52:00,
2013-03-29 05:12:00,30.0,30.0,-100.00,North,5,1.0,2.0,99,0.00,,,-99.99,,2013-03-29 10:12:00,
2013-03-29 05:22:00,29.0,29.0,-100.00,North,0,0.0,1.0,99,0.00,,,-99.99,,2013-03-29 10:22:00,
2013-03-29 05:33:00,29.0,29.0,-100.00,North,0,0.0,1.0,99,0.00,,,-99.99,,2013-03-29 10:33:00,
2013-03-29 05:42:00,29.0,29.0,-100.00,NE,50,0.0,1.0,99,0.00,,,-99.99,,2013-03-29 10:42:00,
2013-03-29 05:52:00,28.0,28.0,-100.00,NE,45,1.0,1.0,99,0.00,,,-99.99,,2013-03-29 10:52:00,
2013-03-29 06:03:00,28.0,28.0,-100.00,NE,40,1.0,2.0,99,0.00,,,-99.99,,2013-03-29 11:03:00,
2013-03-29 06:12:00,28.0,28.0,-100.00,NNE,30,2.0,2.0,99,0.00,,,-99.99,,2013-03-29 11:12:00,
2013-03-29 06:23:00,26.0,26.0,-100.00,NNE,25,2.0,2.0,99,0.00,,,-99.99,,2013-03-29 11:23:00,
2013-03-29 06:32:00,26.0,26.0,-100.00,NNE,15,1.0,2.0,99,0.00,,,-99.99,,2013-03-29 11:32:00,
2013-03-29 06:42:00,27.0,27.0,-100.00,North,0,1.0,2.0,99,0.00,,,-99.99,,2013-03-29 11:42:00,
2013-03-29 06:52:00,27.0,27.0,-100.00,NNW,330,0.0,1.0,99,0.00,,,-99.99,,2013-03-29 11:52:00,
2013-03-29 07:02:00,27.0,27.0,-100.00,North,0,0.0,1.0,99,0.00,,,-99.99,,2013-03-29 12:02:00,
2013-03-29 07:12:00,27.0,27.0,-100.00,North,0,0.0,1.0,99,0.00,,,-99.99,,2013-03-29 12:12:00,
2013-03-29 07:22:00,27.0,27.0,-100.00,NNE,25,1.0,2.0,99,0.00,,,-99.99,,2013-03-29 12:22:00,
2013-03-29 07:32:00,27.0,27.0,-100.00,NNE,30,2.0,2.0,100,0.00,,,-99.99,,2013-03-29 12:32:00,
2013-03-29 07:42:00,27.0,27.0,-100.00,NE,35,2.0,2.0,99,0.00,,,-99.99,,2013-03-29 12:42:00,
2013-03-29 07:52:00,27.0,27.0,-100.00,NNE,25,2.0,2.0,99,0.00,,,-99.99,,2013-03-29 12:52:00,
2013-03-29 08:02:00,27.0,27.0,-100.00,NNE,25,1.0,2.0,99,0.00,,,-99.99,,2013-03-29 13:02:00,
2013-03-29 08:12:00,28.0,28.0,-100.00,NNE,25,2.0,2.0,99,0.00,,,-99.99,,2013-03-29 13:12:00,
2013-03-29 08:22:00,30.0,30.0,-100.00,NNE,15,1.0,2.0,99,0.00,,,-99.99,,2013-03-29 13:22:00,
2013-03-29 08:32:00,32.0,32.0,-100.00,NE,35,1.0,1.0,99,0.00,,,-99.99,,2013-03-29 13:32:00,
2013-03-29 08:52:00,33.0,33.0,-100.00,NE,55,0.0,1.0,99,0.00,,,-99.99,,2013-03-29 13:52:00,
2013-03-29 09:02:00,35.0,35.0,-100.00,NE,45,0.0,1.0,99,0.00,,,-99.99,,2013-03-29 14:02:00,
2013-03-29 09:12:00,37.0,37.0,-100.00,NE,45,0.0,0.0,99,0.00,,,-99.99,,2013-03-29 14:12:00,
2013-03-29 09:22:00,40.0,39.0,-100.00,WSW,240,3.0,5.0,95,0.00,,,-99.99,,2013-03-29 14:22:00,
2013-03-29 09:32:00,42.0,39.0,-100.00,WSW,250,4.0,6.0,91,0.00,,,-99.99,,2013-03-29 14:32:00,
2013-03-29 09:42:00,43.0,40.0,-100.00,WSW,255,6.0,8.0,89,0.00,,,-99.99,,2013-03-29 14:42:00,
2013-03-29 09:52:00,44.0,40.0,-100.00,SW,235,9.0,11.0,86,0.00,,,-99.99,,2013-03-29 14:52:00,
2013-03-29 10:02:00,45.0,40.0,-100.00,WSW,245,12.0,14.0,83,0.00,,,-99.99,,2013-03-29 15:02:00,
2013-03-29 10:12:00,45.0,40.0,-100.00,WSW,245,10.0,14.0,81,0.00,,,-99.99,,2013-03-29 15:12:00,
2013-03-29 10:22:00,46.0,40.0,-100.00,WSW,250,11.0,16.0,79,0.00,,,-99.99,,2013-03-29 15:22:00,
2013-03-29 10:33:00,47.0,41.0,-100.00,WSW,250,13.0,16.0,77,0.00,,,-99.99,,2013-03-29 15:33:00,
2013-03-29 10:42:00,48.0,41.0,-100.00,WSW,245,14.0,16.0,75,0.00,,,-99.99,,2013-03-29 15:42:00,
2013-03-29 10:52:00,49.0,41.0,-100.00,WSW,250,14.0,17.0,73,0.00,,,-99.99,,2013-03-29 15:52:00,
2013-03-29 11:03:00,49.0,41.0,-100.00,WSW,250,14.0,17.0,73,0.00,,,-99.99,,2013-03-29 16:03:00,
2013-03-29 11:12:00,49.0,41.0,-100.00,WSW,250,14.0,18.0,73,0.00,,,-99.99,,2013-03-29 16:12:00,
2013-03-29 11:23:00,50.0,42.0,-100.00,WSW,250,13.0,17.0,72,0.00,,,-99.99,,2013-03-29 16:23:00,
2013-03-29 11:32:00,52.0,42.0,-100.00,WSW,245,16.0,19.0,69,0.00,,,-99.99,,2013-03-29 16:32:00,
2013-03-29 11:42:00,52.0,42.0,-100.00,WSW,245,16.0,19.0,69,0.00,,,-99.99,,2013-03-29 16:42:00,
2013-03-29 11:52:00,53.0,42.0,-100.00,WSW,240,17.0,20.0,66,0.00,,,-99.99,,2013-03-29 16:52:00,
2013-03-29 12:03:00,53.0,42.0,-100.00,WSW,240,17.0,20.0,66,0.00,,,-99.99,,2013-03-29 17:03:00,
2013-03-29 12:12:00,54.0,43.0,-100.00,SW,235,12.0,17.0,65,0.00,,,-99.99,,2013-03-29 17:12:00,
2013-03-29 12:22:00,54.0,43.0,-100.00,WSW,255,12.0,17.0,65,0.00,,,-99.99,,2013-03-29 17:22:00,
2013-03-29 12:33:00,56.0,43.0,-100.00,WSW,250,14.0,21.0,62,0.00,,,-99.99,,2013-03-29 17:33:00,
2013-03-29 12:42:00,56.0,43.0,-100.00,WSW,250,14.0,21.0,61,0.00,,,-99.99,,2013-03-29 17:42:00,
2013-03-29 12:52:00,57.0,43.0,-100.00,WSW,240,12.0,18.0,60,0.00,,,-99.99,,2013-03-29 17:52:00,
2013-03-29 13:02:00,57.0,43.0,-100.00,WSW,240,12.0,18.0,60,0.00,,,-99.99,,2013-03-29 18:02:00,
2013-03-29 13:12:00,58.0,43.0,-100.00,WSW,240,11.0,16.0,59,0.00,,,-99.99,,2013-03-29 18:12:00,
2013-03-29 13:22:00,58.0,43.0,-100.00,WSW,255,11.0,17.0,56,0.00,,,-99.99,,2013-03-29 18:22:00,
2013-03-29 13:32:00,59.0,43.0,-100.00,WSW,245,12.0,17.0,54,0.00,,,-99.99,,2013-03-29 18:32:00,
2013-03-29 13:42:00,60.0,43.0,-100.00,WSW,250,13.0,18.0,54,0.00,,,-99.99,,2013-03-29 18:42:00,
2013-03-29 13:52:00,60.0,42.0,-100.00,SW,230,14.0,23.0,50,0.00,,,-99.99,,2013-03-29 18:52:00,
2013-03-29 14:02:00,61.0,42.0,-100.00,WSW,245,17.0,23.0,48,0.00,,,-99.99,,2013-03-29 19:02:00,
2013-03-29 14:12:00,62.0,41.0,-100.00,WSW,245,14.0,21.0,47,0.00,,,-99.99,,2013-03-29 19:12:00,
2013-03-29 14:22:00,62.0,41.0,-100.00,WSW,250,17.0,23.0,46,0.00,,,-99.99,,2013-03-29 19:22:00,
2013-03-29 14:32:00,63.0,41.0,-100.00,WSW,240,16.0,22.0,45,0.00,,,-99.99,,2013-03-29 19:32:00,
2013-03-29 14:42:00,63.0,42.0,-100.00,WSW,250,17.0,20.0,45,0.00,,,-99.99,,2013-03-29 19:42:00,
2013-03-29 14:52:00,63.0,41.0,-100.00,WSW,240,15.0,24.0,44,0.00,,,-99.99,,2013-03-29 19:52:00,
2013-03-29 15:02:00,63.0,41.0,-100.00,SW,215,12.0,24.0,44,0.00,,,-99.99,,2013-03-29 20:02:00,
2013-03-29 15:12:00,63.0,41.0,-100.00,WSW,240,16.0,19.0,44,0.00,,,-99.99,,2013-03-29 20:12:00,
2013-03-29 15:22:00,63.0,41.0,-100.00,North,-999,-999.0,-999.0,43,0.00,,,-99.99,,2013-03-29 20:22:00,
2013-03-29 15:32:00,64.0,41.0,-100.00,SW,225,14.0,19.0,42,0.00,,,-99.99,,2013-03-29 20:32:00,
2013-03-29 15:42:00,64.0,41.0,-100.00,WSW,250,14.0,19.0,43,0.00,,,-99.99,,2013-03-29 20:42:00,
2013-03-29 15:52:00,64.0,41.0,-100.00,WSW,255,15.0,19.0,42,0.00,,,-99.99,,2013-03-29 20:52:00,
2013-03-29 16:02:00,65.0,41.0,-100.00,WSW,250,11.0,19.0,41,0.00,,,-99.99,,2013-03-29 21:02:00,
2013-03-29 16:12:00,65.0,41.0,-100.00,SW,225,13.0,21.0,41,0.00,,,-99.99,,2013-03-29 21:12:00,
2013-03-29 16:22:00,65.0,42.0,-100.00,SW,235,12.0,19.0,42,0.00,,,-99.99,,2013-03-29 21:22:00,
2013-03-29 16:32:00,65.0,41.0,-100.00,SW,225,11.0,19.0,41,0.00,,,-99.99,,2013-03-29 21:32:00,
2013-03-29 16:42:00,65.0,41.0,-100.00,WSW,240,15.0,19.0,41,0.00,,,-99.99,,2013-03-29 21:42:00,
2013-03-29 16:53:00,65.0,41.0,-100.00,SW,230,12.0,17.0,40,0.00,,,-99.99,,2013-03-29 21:53:00,
2013-03-29 17:03:00,65.0,41.0,-100.00,WSW,245,13.0,20.0,41,0.00,,,-99.99,,2013-03-29 22:03:00,
2013-03-29 17:12:00,65.0,40.0,-100.00,SW,235,16.0,21.0,40,0.00,,,-99.99,,2013-03-29 22:12:00,
2013-03-29 17:22:00,65.0,40.0,-100.00,SW,235,14.0,19.0,40,0.00,,,-99.99,,2013-03-29 22:22:00,
2013-03-29 17:33:00,65.0,40.0,-100.00,SW,235,14.0,19.0,40,0.00,,,-99.99,,2013-03-29 22:33:00,
2013-03-29 17:42:00,66.0,41.0,-100.00,WSW,245,13.0,19.0,40,0.00,,,-99.99,,2013-03-29 22:42:00,
2013-03-29 17:52:00,65.0,41.0,-100.00,WSW,240,14.0,17.0,41,0.00,,,-99.99,,2013-03-29 22:52:00,
2013-03-29 18:02:00,65.0,41.0,-100.00,WSW,245,14.0,17.0,41,0.00,,,-99.99,,2013-03-29 23:02:00,
2013-03-29 18:12:00,65.0,40.0,-100.00,WSW,250,12.0,18.0,40,0.00,,,-99.99,,2013-03-29 23:12:00,
2013-03-29 18:22:00,64.0,40.0,-100.00,WSW,250,14.0,17.0,40,0.00,,,-99.99,,2013-03-29 23:22:00,
2013-03-29 18:32:00,64.0,40.0,-100.00,WSW,250,11.0,18.0,41,0.00,,,-99.99,,2013-03-29 23:32:00,
2013-03-29 18:42:00,63.0,40.0,-100.00,WSW,245,9.0,13.0,42,0.00,,,-99.99,,2013-03-29 23:42:00,
2013-03-29 18:52:00,63.0,40.0,-100.00,WSW,240,7.0,11.0,44,0.00,,,-99.99,,2013-03-29 23:52:00,
2013-03-29 19:03:00,62.0,40.0,-100.00,WSW,240,8.0,11.0,43,0.00,,,-99.99,,2013-03-30 00:03:00,
2013-03-29 19:12:00,62.0,39.0,-100.00,SW,230,7.0,11.0,42,0.00,,,-99.99,,2013-03-30 00:12:00,
2013-03-29 19:22:00,61.0,38.0,-100.00,SW,225,7.0,10.0,43,0.00,,,-99.99,,2013-03-30 00:22:00,
2013-03-29 19:32:00,60.0,38.0,-100.00,SW,215,5.0,9.0,43,0.00,,,-99.99,,2013-03-30 00:32:00,
2013-03-29 19:42:00,58.0,37.0,-100.00,SW,220,4.0,7.0,46,0.00,,,-99.99,,2013-03-30 00:42:00,
2013-03-29 19:52:00,57.0,37.0,-100.00,SSW,210,4.0,7.0,46,0.00,,,-99.99,,2013-03-30 00:52:00,
2013-03-29 20:02:00,56.0,37.0,-100.00,SW,220,1.0,5.0,48,0.00,,,-99.99,,2013-03-30 01:02:00,
2013-03-29 20:12:00,53.0,36.0,-100.00,SW,235,0.0,4.0,51,0.00,,,-99.99,,2013-03-30 01:12:00,
2013-03-29 20:22:00,52.0,36.0,-100.00,ENE,75,0.0,1.0,53,0.00,,,-99.99,,2013-03-30 01:22:00,
2013-03-29 20:32:00,51.0,36.0,-100.00,West,280,1.0,2.0,57,0.00,,,-99.99,,2013-03-30 01:32:00,
2013-03-29 20:42:00,50.0,36.0,-100.00,West,280,0.0,2.0,59,0.00,,,-99.99,,2013-03-30 01:42:00,
2013-03-29 20:52:00,50.0,37.0,-100.00,West,260,0.0,3.0,60,0.00,,,-99.99,,2013-03-30 01:52:00,
2013-03-29 21:02:00,50.0,37.0,-100.00,SW,225,0.0,3.0,61,0.00,,,-99.99,,2013-03-30 02:02:00,
2013-03-29 21:12:00,49.0,37.0,-100.00,WSW,250,0.0,1.0,62,0.00,,,-99.99,,2013-03-30 02:12:00,
2013-03-29 21:22:00,49.0,37.0,-100.00,WNW,285,1.0,2.0,63,0.00,,,-99.99,,2013-03-30 02:22:00,
2013-03-29 21:32:00,49.0,37.0,-100.00,WSW,250,1.0,3.0,63,0.00,,,-99.99,,2013-03-30 02:32:00,
2013-03-29 21:42:00,49.0,37.0,-100.00,West,275,1.0,2.0,63,0.00,,,-99.99,,2013-03-30 02:42:00,
2013-03-29 21:52:00,49.0,37.0,-100.00,WSW,255,1.0,3.0,63,0.00,,,-99.99,,2013-03-30 02:52:00,
2013-03-29 22:02:00,49.0,37.0,-100.00,WSW,255,2.0,4.0,63,0.00,,,-99.99,,2013-03-30 03:02:00,
2013-03-29 22:12:00,48.0,37.0,-100.00,WSW,250,8.0,9.0,66,0.00,,,-99.99,,2013-03-30 03:12:00,
2013-03-29 22:22:00,48.0,37.0,-100.00,WSW,250,8.0,9.0,66,0.00,,,-99.99,,2013-03-30 03:22:00,
2013-03-29 22:33:00,48.0,38.0,-100.00,WSW,255,7.0,9.0,66,0.00,,,-99.99,,2013-03-30 03:33:00,
2013-03-29 22:43:00,48.0,38.0,-100.00,WSW,255,7.0,9.0,66,0.00,,,-99.99,,2013-03-30 03:43:00,
2013-03-29 22:52:00,48.0,38.0,-100.00,WSW,240,6.0,7.0,67,0.00,,,-99.99,,2013-03-30 03:52:00,
2013-03-29 23:02:00,48.0,38.0,-100.00,WSW,240,6.0,7.0,67,0.00,,,-99.99,,2013-03-30 04:02:00,
2013-03-29 23:12:00,48.0,38.0,-100.00,SW,235,4.0,7.0,67,0.00,,,-99.99,,2013-03-30 04:12:00,
2013-03-29 23:23:00,48.0,38.0,-100.00,WSW,245,4.0,5.0,67,0.00,,,-99.99,,2013-03-30 04:23:00,
2013-03-29 23:32:00,47.0,37.0,-100.00,WSW,240,2.0,4.0,68,0.00,,,-99.99,,2013-03-30 04:32:00,
2013-03-29 23:42:00,47.0,37.0,-100.00,WSW,240,2.0,4.0,68,0.00,,,-99.99,,2013-03-30 04:42:00,
2013-03-29 23:52:00,48.0,38.0,-100.00,SW,215,4.0,6.0,67,0.00,,,-99.99,,2013-03-30 04:52:00,